Terug naar catalogus

SL-12 R/B

AUX MOTOR

ActiefHEO
NORAD 37144·ROCKET BODY·🇷🇺 Russia

Gelanceerd Sep 2, 2010 vanaf Baikonur Cosmodrome

Loading…

Volgende Passages (komende 24 uur)

TLE

VersSource: Space-Track

Epoch: Sep 14, 2026, 10:10 UTC

1 37144U 10041H   26257.42382456 -.00000013  00000-0 -13827-4 0  9992
2 37144  64.9346  60.5251 5614104 304.7802  14.4319  4.24864274109112

Volg SL-12 R/B in realtime met AllMySat

Download on the App Store